Location: Eurasberg
(48.3353°N, 11.0839°E)
Time: 08:58:48
(UTC+00:00)

Cosmos 1190 Rocket - Pass Details

Date: 18 January 2026
Orbit: 753 x 775 km, 74.1° (Epoch: 18 February)

Event Time Altitude Azimuth Distance (km) Brightness Sun altitude
Rises 06:10:33 0° 204° (SSW) 3,206 7.2 -8.2°
Reaches altitude 10° 06:12:54 10° 205° (SSW) 2,282 6.4 -7.8°
Maximum altitude 06:18:05 80° 292° (WNW) 773 4.0 -7.0°
Drops below altitude 10° 06:23:17 10° 21° (NNE) 2,289 6.5 -6.2°
Sets 06:25:40 0° 23° (NNE) 3,217 7.2 -5.8°
